Simultaneous Nadir Overpasses (SNOs) Predictions

Prediction of SNOs between AQUA and GOES-15 Satellite Orbit:

Table of predicted SNOs for the next 14.0 days since TLE Epoch: 10/10/2025
Index Date Time (AQUA) AQUA Lat,Lon GOES-15 Lat,Lon Distance(km) Time Diff (sec)
1 10/11/2025 10:52:27 0.16, 60.94 0.24, 61.40 52.07 80
2 10/13/2025 22:50:37 -0.24, 61.46 -0.22, 61.40 7.54 80
3 10/16/2025 10:48:54 0.31, 61.95 0.21, 61.45 56.37 80
4 10/16/2025 23:07:54 0.73, 57.37 -0.14, 61.41 460.18 80
5 10/18/2025 22:47:03 -0.44, 62.47 -0.19, 61.43 118.19 80
6 10/19/2025 11:06:11 -0.63, 57.86 0.12, 61.49 412.48 80
7 10/21/2025 10:45:18 0.46, 62.97 0.16, 61.50 166.88 80
8 10/21/2025 23:04:18 0.55, 58.39 -0.09, 61.46 348.70 80
9 10/23/2025 22:43:25 -0.59, 63.50 -0.13, 61.49 229.30 80
10 10/24/2025 11:02:32 -0.51, 58.90 0.06, 61.55 302.32 80
